AirNav   Air Wisconsin Up To $57,000 Bonus
 
 1039 users online  

3VA1 The Meadows Airport
Warrenton, Virginia, USA

GOING TO WARRENTON?


FAA INFORMATION EFFECTIVE 07 NOVEMBER 2019

Location

FAA Identifier: 3VA1
Lat/Long: 38-46-27.4180N 077-47-58.9760W
38-46.456967N 077-47.982933W
38.7742828,-77.7997156
(estimated)
Elevation: 584 ft. / 178.0 m (surveyed)
Variation: 09W (1985)
From city: 3 miles N of WARRENTON, VA
Time zone: UTC -5 (UTC -4 during Daylight Saving Time)
Zip code: 20187

Airport Operations

Airport use: Private use. Permission required prior to landing
Activation date: 10/1974
Control tower: no
ARTCC: WASHINGTON CENTER
FSS: LEESBURG FLIGHT SERVICE STATION
Attendance: UNATNDD
Wind indicator: yes
Segmented circle: no

Airport Communications

WX AWOS-3 at HWY (12 nm S): 120.350 (540-788-4078)
WX AWOS-3PT at HEF (14 nm E): PHONE 703-361-6160
WX AWOS-3 at CJR (15 nm S): 119.325 (540-727-0523)
WX ASOS at IAD (19 nm NE): PHONE 703-661-2990

Nearby radio navigation aids

VOR radial/distance  VOR name  Freq  Var
CSNr027/8.6CASANOVA VORTAC116.3006W
AMLr246/18.3ARMEL VOR/DME113.5008W
LDNr110/19.6LINDEN VORTAC114.3006W
BRVr330/33.6BROOKE VORTAC114.5009W
DCAr271/36.0WASHINGTON VOR/DME111.0009W
MRBr183/36.7MARTINSBURG VORTAC112.1007W

 
NDB name  Hdg/Dist  Freq  Var  ID
NAILR024/19.835110WMSQ -- ... --.-
CAVERNS091/31.824509WLUA .-.. ..- .-
GEORGETOWN263/32.932309WGTN --. - -.
DAVEE291/33.022309WDAA -.. .- .-
SHANNON342/34.623710WEZF . --.. ..-.
OXONN282/36.133211WDCA -.. -.-. .-

Airport Services

Airframe service: MAJOR
Powerplant service: MAJOR

Runway Information

Runway 6/24

Dimensions: 2100 x 125 ft. / 640 x 38 m
Surface: turf
RUNWAY 6  RUNWAY 24
Traffic pattern: leftleft

Airport Ownership and Management from official FAA records

Ownership: Privately-owned
Owner: K. W. HYDE
RFD 5 BOX 294
WARRENTON, VA 22186
Phone 703-347-1909
Manager: K. W. HYDE
RFD 5 BOX 294
WARRENTON, VA 22186
Phone 540-347-1909

Airport Operational Statistics

Aircraft based on the field: 4
Single engine airplanes: 4
    

Additional Remarks

AVOID FLYING OVER HOUSES ON APCH OR TAKEOFF.
FOR CD CTC POTOMAC APCH AT 866-709-4993

Instrument Procedures

There are no published instrument procedures at 3VA1.

Some nearby airports with instrument procedures:

KHWY - Warrenton-Fauquier Airport (12 nm S)
2VG2 - Upperville Airport (12 nm N)
KHEF - Manassas Regional Airport/Harry P. Davis Field (14 nm E)
KCJR - Culpeper Regional Airport (15 nm S)
KIAD - Washington Dulles International Airport (19 nm NE)
 
Loc | Ops | Rwys | IFR | FBO | Links
Com | Nav | Svcs | Stats | Notes
Area around 3VA1 (The Meadows Airport)
 
Road maps at: MapQuest Bing Google
 
Aerial photo
No photo
 
Sectional chart

 
Airport distance calculator
Flying to The Meadows Airport? Find the distance to fly.

From to 3VA1

Sunrise and sunset
Times for 17-Nov-2019
 Local
(UTC-5)
 Zulu
(UTC)
Morning civil twilight06:2811:28
Sunrise06:5711:57
Sunset16:5621:56
Evening civil twilight17:2422:24

Current date and time
Zulu (UTC)  17-Nov-2019 22:37:51
Local (UTC-5)  17-Nov-2019 17:37:51
 
METAR
KHWY 
12nm S 
172215Z AUTO 36006KT 10SM SCT026 OVC036 06/M04 A3009 RMK AO2 T00601045
KHEF 
14nm E 
172156Z 36008KT 10SM OVC029 06/M02 A3010 RMK AO2 SLP202 T00611017
KIAD 
19nm NE 
172152Z 36008KT 10SM BKN027 OVC040 06/M03 A3010 RMK AO2 SLP195 T00611033
KJYO 
21nm NE 
172215Z AUTO 01008KT 10SM SCT027 OVC037 05/M01 A3011 RMK AO2
KCJR 
22nm SW 
172215Z AUTO 03003KT 10SM SCT027 OVC037 06/M03 A3010 RMK AO2 T00621026
KFRR 
23nm W 
172215Z AUTO 00000KT 10SM OVC035 03/M02 A3009 RMK AO1
TAF
KIAD 
19nm NE 
172056Z 1721/1824 01008KT P6SM BKN025 OVC040 FM180300 36008KT P6SM OVC015 FM181600 33005KT P6SM OVC025 FM181700 33005KT P6SM OVC035
NOTAMs
Click for the latest NOTAMs
NOTAMs are issued by the DoD/FAA and will open in a separate window not controlled by AirNav.

 

 
 

Would you like to see your business listed on this page?

 If your business provides an interesting product or service to pilots, flight crews, aircraft, or users of the The Meadows Airport, you should consider listing it here.  To start the listing process, click on the button below
 
Add a business
 

Other Pages about The Meadows Airport

Update a link
 
Copyright © AirNav, LLC. All rights reserved. Privacy Policy  Contact